Fairfield, CA

10:25 PM PDT on March 26, 2017 (GMT -0700)
Travis Air Force Base

Weather History for KSUU - November, 2013

Change the Weather History Date:

Saturday, November 16, 2013

  Actual Average Record
Temperature  
Mean Temperature 55 °F -  
Max Temperature 65 °F 62 °F 75 °F (2005)
Min Temperature 45 °F 43 °F 32 °F (2000)
Degree Days  
Heating Degree Days 10    
Growing Degree Days 5 (Base 50)    
Moisture  
Dew Point 44 °F    
Average Humidity 73    
Maximum Humidity 99    
Minimum Humidity 32    
Precipitation  
Precipitation 0.00 in - - ()
Sea Level Pressure  
Sea Level Pressure 29.82 in    
Wind  
Wind Speed 14 mph (SW)    
Max Wind Speed 18 mph    
Max Gust Speed -    
Visibility 10 miles    
Events      
Averages and records for this station are not official NWS values.
T = Trace of Precipitation, MM = Missing Value Source: NWS Daily Summary

Daily Weather History Graph

Daily Weather History Graph

Search for Another Location

Airport or City:

Trip Planner

Search our weather history database for the weather conditions in past years. The results will help you decide how hot, cold, wet, or windy it might be!

Date:

Astronomy

Nov. 16, 2013 Rise Set
Actual Time 6:50 AM PST 4:54 PM PST
Civil Twilight 6:22 AM PST 5:22 PM PST
Nautical Twilight 5:50 AM PST 5:54 PM PST
Astronomical Twilight 5:18 AM PST 6:25 PM PST
Moon 4:32 PM PST (11/16) 5:52 AM PST (11/16)
Length of Visible Light 11h 00m
Length of Day
10h 03m
Waxing Gibbous, 99% of the Moon is Illuminated
Nov 16
Waxing Gibbous
Nov 17
Full
Nov 25
Last Quarter
Dec 2
New
Dec 9
First Quarter

Hourly Weather History & Observations

Time (PST) Temp. Windchill Dew Point Humidity Pressure Visibility Wind Dir Wind Speed Gust Speed Precip Events Conditions
12:58 AM 52.3 °F - 47.7 °F 84% 29.76 in 10.0 mi WSW 18.4 mph - N/A   Clear
1:58 AM 52.3 °F - 47.1 °F 82% 29.75 in 10.0 mi SW 17.3 mph - N/A   Clear
2:58 AM 49.6 °F - 47.5 °F 92% 29.75 in 10.0 mi SW 18.4 mph - N/A   Clear
3:58 AM 49.6 °F - 48.0 °F 94% 29.75 in 10.0 mi SW 16.1 mph - N/A   Clear
4:58 AM 48.6 °F - 47.5 °F 96% 29.76 in 10.0 mi SW 11.5 mph - N/A   Clear
5:58 AM 45.5 °F 38.6 °F 43.3 °F 92% 29.76 in 10.0 mi SW 16.1 mph - N/A   Clear
6:58 AM 46.0 °F 39.6 °F 42.3 °F 87% 29.80 in 10.0 mi SW 15.0 mph - N/A   Clear
7:58 AM 47.8 °F - 42.3 °F 81% 29.82 in 10.0 mi SW 10.4 mph - N/A   Clear
8:58 AM 52.5 °F - 40.8 °F 64% 29.83 in 10.0 mi WSW 9.2 mph - N/A   Clear
9:58 AM 56.5 °F - 39.2 °F 52% 29.85 in 10.0 mi SW 8.1 mph - N/A   Clear
10:58 AM 59.4 °F - 37.4 °F 44% 29.85 in 10.0 mi WSW 9.2 mph - N/A   Clear
11:58 AM 61.9 °F - 37.0 °F 40% 29.83 in 10.0 mi WSW 8.1 mph - N/A   Clear
12:58 PM 64.0 °F - 35.8 °F 35% 29.82 in 10.0 mi Variable 6.9 mph - N/A   Clear
1:58 PM 65.7 °F - 35.4 °F 33% 29.81 in 10.0 mi Variable 3.5 mph - N/A   Clear
2:58 PM 65.8 °F - 35.4 °F 32% 29.81 in 10.0 mi SSW 4.6 mph - N/A   Clear
3:58 PM 64.9 °F - 43.0 °F 45% 29.81 in 10.0 mi WSW 17.3 mph - N/A   Clear
4:58 PM 59.9 °F - 46.8 °F 62% 29.83 in 10.0 mi SW 10.4 mph - N/A   Clear
5:58 PM 56.3 °F - 48.0 °F 74% 29.84 in 10.0 mi SW 11.5 mph - N/A   Clear
6:58 PM 54.1 °F - 48.9 °F 82% 29.85 in 10.0 mi SW 15.0 mph - N/A   Clear
7:58 PM 52.0 °F - 48.6 °F 88% 29.86 in 10.0 mi SSW 10.4 mph - N/A   Clear
8:58 PM 51.4 °F - 48.6 °F 90% 29.88 in 10.0 mi SW 13.8 mph - N/A   Clear
9:58 PM 50.4 °F - 48.9 °F 95% 29.90 in 10.0 mi SSW 12.7 mph - N/A   Clear
10:58 PM 48.0 °F - 47.8 °F 99% 29.92 in 10.0 mi WSW 6.9 mph - N/A   Clear
11:58 PM 48.2 °F - 47.8 °F 99% 29.92 in 10.0 mi SW 9.2 mph - N/A   Clear